Torna al catalogo

THORAD AGENA D DEB

AttivoLEO
NORAD 4209·DEBRIS·🇺🇸 United States

Lanciato Sep 30, 1969 da Vandenberg Space Force Base

Loading…

Prossimi Passaggi (prossime 24 ore)

TLE

AggiornatoSource: Space-Track

Epoca: Sep 14, 2026, 15:02 UTC

1 04209U 69082BY  26257.62684501 -.00000061  00000-0 -40063-5 0  9991
2 04209  70.0347  16.1628 0041270 203.4466 156.4765 14.05074007916526

Traccia THORAD AGENA D DEB in tempo reale con AllMySat

Download on the App Store